Погода в Выползове

Россия / Тверская область     57°52′35″N   33°41′56″E
темп.,
°C
ветер,
м/с
пор.,
м/с
влажн.,
%
обл.,
%
осадки,
мм/ч
давл.,
гПа
погр.,
м
21 апреля, ср
ср2100:00+3в3997100 0.3 1015640
03:00+3св3697100 0.9 1012632
06:00+3св3597100 1.3 1009481
09:00+2ссв2499100 2.4 1007245
12:00+2ссз1299100 0.6 1005207
15:00+3з2499100 0.9 1005428
18:00+3з3793100 0.1 1005818
21:00+2юз22956 0.1 100628
22 апреля, чт
чт2200:00+1ю299559 0.0 1006189
03:00+2ю3995100 0.0 1007196
06:00+3ю41193100 0.0 1007326
09:00+7ююз4780100 0.1 1008465
12:00+12юз475869 0.0 10081208
15:00+15ююз4738100 0.0 10082521
18:00+14ю374575 0.0 1008674
21:00+8ююв3117535 0.0 1009296
23 апреля, пт
пт2300:00+8ю4128884 0.3 1008597
03:00+6ююз3796100 0.3 1008257
06:00+3з4896100 3.4 1009363
09:00+7ююз4780100 4.1 1010905
12:00+9ююз5757100 0.2 10111738
15:00+10юз5745100 0.2 10122047
18:00+9ю3550100 0.0 10111639
21:00+5ююв2269100 0.0 101236
24 апреля, сб
сб2400:00+5ююв2388100 0.1 101089
03:00+4з1389100 0.9 1009428
06:00+3ссв1389100 0.8 1008282
09:00+4сз1392100 1.3 1007481
12:00+4з3696100 1.5 1006563
15:00+6зсз3571100 2.3 10061069
18:00+6ссз2466100 0.0 10061093
21:00+2з249299 0.2 1006106
25 апреля, вс
вс2500:00+2з2791100 0.0 1005192
03:00+1зюз3791100 0.0 1005201
06:000зюз3891100 0.0 1005287
09:00+3зюз4781100 0.0 1005565
12:00+4зюз4675100 0.1 10061023
15:00+6з4558100 0.4 10061410
18:00+6з4564100 0.5 10061087
21:00+2зюз2478100 0.6 100782